Orbital Elements at Epoch 2459000.5 (2020-May-31.0) TDB
Reference: JPL 18 (heliocentric ecliptic J2000)
Element | Value | Uncertainty (1-sigma) | Units |
e | .1264093964609418 | 4.838e-08 | |
a | 2.620796904312671 | 2.0275e-08 | au |
q | 2.289503549391802 | 1.252e-07 | au |
i | 14.11562193077584 | 5.3197e-06 | deg |
node | 111.951100488148 | 2.1435e-05 | deg |
peri | 105.5080982597025 | 3.255e-05 | deg |
M | 201.9792823284196 | 2.8457e-05 | deg |
tp | 2459680.736617625422 (2022-Apr-11.23661763) | 0.0001269 | TDB |
period | 1549.703013335915 4.24 | 1.7983e-05 4.923e-08 | d yr |
n | .2323025746882032 | 2.6957e-09 | deg/d |
Q | 2.952090259233541 | 2.2838e-08 | au |
|
| | Orbit Determination Parameters
Additional Information
|